MAYA-1 (43590 NORAD) Tracking and Keplerian Element Data

This shows tracking and keplerian element data for the satellite.

Feedback or suggestion? Click here.




ElementValue
Catalog43590
NameMAYA-1
Epoch Orbit4023
Epoch Day115.63907498
Epoch Year2019
RAAN255.0508
Inclination51.6364
Eccentricity0.0005692
Argument of Perigee308.5631
Mean Anonmoly51.4852
Mean Motion15.60414878
Decay Rate0.00015069
L11 43590U 98067PE 19115.63907498 .00015069 00000-0 18571-3 0 9990
L22 43590 51.6364 255.0508 0005692 308.5631 51.4852 15.60414878 40239

Live tracking and technical data element details for MAYA-1 (NORAD 43590). MAYA-1 can be tracked NOW for your location showing map with azimuth and elevation plus other details from your city location.

Track the satellite on the map from your city or location and see movement details for azimuth, elevation, latitude, longitude, range, height, and movement on the map or in text.







IsCatalogInMostPopularTable: catalog: 43590, numindb: 115
Update: records affected: 1



GetName: 43590 MAYA-1

Hit Count: updated at: Fri, 26 Apr 2019 15:44:15 GMT